EW1334 Weather Reports


time (UTC)temp
F
wind
direction
speed
knots
gust
knots
rain 1hr
in
rain 24hr
in
rain mn
in
humidity
%
barometer
mb
20260506134517 75 209 3.5 16.5 0.00 0.00 0.00 45 1004.6
20260506133025 74 233 5.2 16.5 0.00 0.00 0.00 46 1004.6
20260506131517 74 281 4.3 12.2 0.00 0.00 0.00 46 1004.6
20260506130015 74 301 5.2 13.9 0.00 0.00 0.00 46 1004.6
20260506124512 75 250 7.8 16.5 0.00 0.00 0.00 46 1004.6
20260506123010 73 247 5.2 13.0 0.00 0.00 0.00 47 1004.8
20260506121509 73 246 3.5 10.4 0.00 0.00 0.00 47 1004.7
20260506120008 73 283 4.3 8.7 0.00 0.00 0.00 47 1004.7
20260506114527 73 238 4.3 12.2 0.00 0.00 0.00 48 1004.7
20260506113107 74 318 5.2 10.4 0.00 0.00 0.00 46 1004.6
20260506111506 73 234 7.0 16.5 0.00 0.00 0.00 46 1004.7
20260506110007 73 241 8.7 14.8 0.00 0.00 0.00 45 1004.4
20260506104505 73 235 7.0 16.5 0.00 0.00 0.00 45 1004.5
20260506103003 72 191 6.1 15.6 0.00 0.00 0.00 46 1004.6
20260506101503 73 102 4.3 16.5 0.00 0.00 0.00 45 1004.5
20260506100002 73 203 5.2 14.8 0.00 0.00 0.00 45 1004.5
20260506094602 73 151 1.7 14.8 0.00 0.00 0.00 43 1004.6
20260506094502 74 321 5.2 14.8 0.00 0.00 0.00 42 1004.6
20260506093059 73 117 3.5 12.2 0.00 0.00 0.00 44 1004.6
20260506091557 72 264 6.1 13.9 0.00 0.00 0.00 42 1004.6
20260506090055 72 249 6.1 14.8 0.00 0.00 0.00 42 1004.6
20260506084600 72 170 5.2 13.0 0.00 0.00 0.00 40 1004.5
20260506083052 71 252 2.6 12.2 0.00 0.00 0.00 46 1004.4
20260506081550 71 174 3.5 9.6 0.00 0.00 0.00 47 1004.4
20260506073043 70 140 1.7 7.0 0.00 0.00 0.00 48 1004.8
20260506071538 67 149 2.6 6.1 0.00 0.00 0.00 53 1004.9
20260506061522 61 135 1.7 6.1 0.00 0.00 0.00 69 1005.2
20260506044558 54 69 3.5 7.0 0.00 0.00 0.00 80 1005.4
20260506043055 53 51 1.7 5.2 0.00 0.00 0.00 83 1005.4
20260506041554 52 53 1.7 5.2 0.00 0.00 0.00 83 1005.5
20260506040055 52 127 2.6 8.7 0.00 0.00 0.00 83 1005.6
20260506034548 51 53 2.6 5.2 0.00 0.00 0.00 83 1005.5
20260506033045 51 94 2.6 6.1 0.00 0.00 0.00 82 1005.8
20260506031542 51 82 1.7 6.1 0.00 0.00 0.00 81 1005.6
20260506030056 50 63 1.7 6.1 0.00 0.00 0.00 79 1005.7
20260506024550 50 89 2.6 4.3 0.00 0.00 0.00 78 1005.8
20260506023035 51 46 1.7 4.3 0.00 0.00 0.00 78 1006.0
20260506021534 51 46 1.7 3.5 0.00 0.00 0.00 78 1006.0
20260506020033 51 56 1.7 4.3 0.00 0.00 0.00 78 1006.0
20260506014543 51 1 0.9 4.3 0.00 0.00 0.00 77 1006.0
20260506013032 52 32 0.9 3.5 0.00 0.00 0.00 76 1006.2
20260506011536 52 46 1.7 5.2 0.00 0.00 0.00 76 1006.2
20260506010027 52 18 2.6 5.2 0.00 0.00 0.00 76 1006.2
20260506004542 53 59 1.7 8.7 0.00 0.00 0.00 76 1006.2
20260506003031 53 322 1.7 4.3 0.00 0.00 0.00 77 1006.1
20260506001521 54 314 1.7 5.2 0.00 0.00 0.00 77 1006.1
20260506000022 55 15 0.9 3.5 0.00 0.00 0.00 77 1006.1
20260505234514 55 68 1.7 4.3 0.00 0.00 0.00 77 1005.9
20260505233012 56 8 1.7 6.1 0.00 0.00 0.00 77 1005.9
20260505231508 57 42 1.7 7.8 0.00 0.00 0.00 77 1005.9
20260505230006 57 47 2.6 7.0 0.00 0.00 0.00 76 1005.9
20260505224504 58 340 1.7 4.3 0.00 0.00 0.00 75 1005.8
20260505223001 59 58 2.6 6.1 0.00 0.00 0.00 75 1005.9
20260505221604 59 350 3.5 7.0 0.00 0.00 0.00 74 1005.9
20260505220055 60 47 3.5 9.6 0.00 0.00 0.00 74 1006.0
20260505214559 60 58 2.6 8.7 0.00 0.00 0.00 73 1006.1
20260505213059 61 46 2.6 6.1 0.00 0.00 0.00 71 1006.0
20260505211554 63 350 0.9 7.0 0.00 0.00 0.00 69 1005.8
20260505210053 64 11 1.7 11.3 0.00 0.00 0.00 67 1005.7
20260505204553 64 41 6.1 13.0 0.00 0.00 0.00 67 1005.7
20260505203056 65 18 1.7 8.7 0.00 0.00 0.00 66 1005.7
20260505201553 65 58 4.3 11.3 0.00 0.00 0.00 66 1005.6
20260505200052 66 4 3.5 7.0 0.00 0.00 0.00 64 1005.5
20260505194557 67 348 5.2 9.6 0.00 0.00 0.00 62 1005.4
20260505193105 68 1 2.6 6.1 0.00 0.00 0.00 53 1005.3
20260505191553 68 322 4.3 8.7 0.00 0.00 0.00 44 1005.0
20260505190051 67 347 2.6 5.2 0.00 0.00 0.00 38 1004.9
20260505184554 70 135 0.0 0.9 0.00 0.00 0.00 37 1004.6
20260505183049 72 161 0.0 2.6 0.00 0.00 0.00 32 1004.6
20260505181547 74 168 0.9 1.7 0.00 0.00 0.00 30 1004.6
20260505180047 75 135 0.9 3.5 0.00 0.00 0.00 28 1004.6
20260505174546 76 171 1.7 3.5 0.00 0.00 0.00 28 1004.5
20260505173044 76 150 1.7 6.1 0.00 0.00 0.00 27 1004.6
20260505171548 77 169 1.7 4.3 0.00 0.00 0.00 26 1004.6
20260505170043 77 122 3.5 8.7 0.00 0.00 0.00 26 1004.7
20260505164544 77 159 4.3 7.8 0.00 0.00 0.00 26 1004.8
20260505163042 78 1 2.6 8.7 0.00 0.00 0.00 25 1004.9
20260505161539 78 160 4.3 10.4 0.00 0.00 0.00 25 1004.9
20260505153043 80 133 7.0 13.9 0.00 0.00 0.00 22 1005.1
20260505151536 80 232 3.5 8.7 0.00 0.00 0.00 25 1005.1